Regional Weather Roundup
Issued by NWS Spokane, WA

Home | Current Version | Previous Version | Text Only | Print | Product List | Glossary On
Versions: 1 2 3 4 5 6 7 8 9 10 11 12 13 14 15 16 17 18 19 20 21 22 23 24 25 26 27 28 29 30 31 32 33 34 35 36 37 38 39 40 41 42 43 44 45 46 47 48 49 50
000
NZUS01 KOTX 012157
RWROTX
EASTERN WASHINGTON/NORTHERN IDAHO ROUNDUP
NATIONAL WEATHER SERVICE, SPOKANE WA
300 PM PDT SUN MAY 01 2016

Note: "fair" indicated few or no clouds below 12,000 feet with no
significant weather and/or obstructions to visibility.

...NORTHEAST WASHINGTON AND NORTHERN IDAHO PANHANDLE...

CITY           SKY/WX    TMP DP  RH WIND       PRES   REMARKS
SPOKANE INTL   MOSUNNY   72  34  24 E12G21    30.11F
SPOKANE DOWNTO SUNNY     73  37  27 VRB3      30.10F
DEER PARK      SUNNY     72  33  24 NE10      30.12F

...SOUTHEAST WASHINGTON AND SOUTHERN IDAHO PANHANDLE...

CITY           SKY/WX    TMP DP  RH WIND       PRES   REMARKS
WALLA WALLA    SUNNY     72  45  37 VRB3      30.04F
PULLMAN/MOSCOW SUNNY     67  42  40 SE10      30.11F
LOWELL           N/A     80  37  21 CALM      30.01F

...COLUMBIA BASIN...

CITY           SKY/WX    TMP DP  RH WIND       PRES   REMARKS
EPHRATA        SUNNY     75  34  22 NE14G20   30.08F
MOSES LAKE     SUNNY     78  36  21 NE17      30.08F
TRI CITIES     SUNNY     79  36  21 NE9       30.04F
HERMISTON      SUNNY     77  39  25 NE9       30.03F
PENDLETON      SUNNY     72  39  30 E9        30.05F

...EAST SLOPES CASCADES...

CITY           SKY/WX    TMP DP  RH WIND       PRES   REMARKS
THE DALLES     SUNNY     81  36  19 E16       30.01F
YAKIMA         SUNNY     79  35  20 E10       30.07F
ELLENSBURG     SUNNY     77  37  23 E14G21    30.09F
STAMPEDE PASS  SUNNY     60  33  36 NE6       30.14F
OMAK           SUNNY     75  35  23 N7        30.09F

...SOUTHERN BRITISH COLUMBIA...

CITY           SKY/WX    TMP DP  RH WIND       PRES   REMARKS

...WESTERN MONTANA...

CITY           SKY/WX    TMP DP  RH WIND       PRES   REMARKS
MISSOULA       SUNNY     67  31  26 CALM      30.14F

...NEIGHBORING CITIES...

CITY           SKY/WX    TMP DP  RH WIND       PRES   REMARKS
SEATTLE        SUNNY     75  47  36 NW10      30.04F



USA.gov is the U.S. government's official web portal to all federal, state and local government web resources and services.